This is the latest recevied weather packets stored in our database for station/object KG4LKY-5. If no packets are shown the sender has not sent any weather packets the latest 10 day(s).
| Time | Temp. | Humidity | Pressure | Rain* | Wind** | Luminosity | Snow |
|---|---|---|---|---|---|---|---|
| 1777984937 | 17.22° C | 54% | 1013.9 hPa | 0 mm | - | - | - |
| 1777984636 | 17.22° C | 55% | 1013.8 hPa | 0 mm | - | - | - |
| 1777984336 | 16.67° C | 57% | 1013.7 hPa | 0 mm | - | - | - |
| 1777983735 | 16.67° C | 58% | 1013.6 hPa | 0 mm | - | - | - |
| 1777982835 | 16.67° C | 58% | 1013.7 hPa | 0 mm | - | - | - |
| 1777982534 | 16.11° C | 58% | 1013.7 hPa | 0 mm | - | - | - |
| 1777982234 | 15.56° C | 60% | 1013.7 hPa | 0 mm | - | - | - |
| 1777981332 | 15.56° C | 60% | 1013.7 hPa | 0 mm | - | - | - |
| 1777981032 | 15° C | 64% | 1013.7 hPa | 0 mm | - | - | - |
| 1777980431 | 14.44° C | 63% | 1013.6 hPa | 0 mm | - | - | - |
| 1777979830 | 14.44° C | 62% | 1013.3 hPa | 0 mm | - | - | - |
| 1777979231 | 14.44° C | 62% | 1013 hPa | 0 mm | - | - | - |
| 1777978929 | 14.44° C | 63% | 1013 hPa | 0 mm | - | - | - |
| 1777978028 | 14.44° C | 65% | 1012.9 hPa | 0 mm | - | - | - |
| 1777977728 | 15° C | 65% | 1012.8 hPa | 0 mm | - | - | - |
| 1777977127 | 14.44° C | 67% | 1012.8 hPa | 0 mm | - | - | - |
| 1777976827 | 13.89° C | 66% | 1012.7 hPa | 0 mm | - | - | - |
| 1777976527 | 14.44° C | 67% | 1012.6 hPa | 0 mm | - | - | - |
| 1777975926 | 14.44° C | 66% | 1012.7 hPa | 0 mm | - | - | - |
| 1777975325 | 13.89° C | 67% | 1012.7 hPa | 0 mm | - | - | - |
| 1777975025 | 13.89° C | 70% | 1012.6 hPa | 0 mm | - | - | - |
| 1777974124 | 13.89° C | 66% | 1012.6 hPa | 0 mm | - | - | - |
| 1777973524 | 14.44° C | 67% | 1012.6 hPa | 0 mm | - | - | - |
| 1777973222 | 14.44° C | 67% | 1012.7 hPa | 0 mm | - | - | - |
| 1777972922 | 14.44° C | 69% | 1012.9 hPa | 0 mm | - | - | - |
* Rain since midnight (hover to see other rain measurements)
** Current wind speed in m/s (hover to see current wind gust speed)